Вернуться в каталог

ECHOSTAR 2

АктивенСвязьGEO
NORAD 24313·PAYLOAD·🇺🇸 United States

Запущен Sep 11, 1996 с Guiana Space Centre

Loading…

TLE

СвежийSource: Space-Track

Эпоха: Sep 14, 2026, 08:42 UTC

1 24313U 96055A   26257.36273455 -.00000301  00000-0  00000-0 0  9990
2 24313  12.1049  30.8316 0011058 104.8879 285.2998  1.00299288109917

Отслеживайте ECHOSTAR 2 в реальном времени с AllMySat

Download on the App Store